Location: Sternwarte ZA, Rosenfeld-Brittheim
(48.2889°N, 8.6789°E)
Time: 19:40:47
(UTC+02:00)

ISS - Pass Details

Date: 21 July 2019
Orbit: 409 x 418 km, 51.6° (Epoch: 20 July)

Event Time Altitude Azimuth Distance (km) Brightness Sun altitude
Rises 02:13:35 0° 292° (WNW) 2,351 0.2 -20.5°
Reaches altitude 10° 02:15:41 10° 292° (WNW) 1,485 -0.9 -20.4°
Enters shadow 02:18:00 42° 291° (WNW) 601 -3.0 -20.4°
